Tracking 19651 objects as of 23-Apr-2019
HD Live streaming from Space Station
objects crossing your sky now

FLOCK 4A 16

Track FLOCK 4A 16 now!
10-day predictions
FLOCK 4A 16 is classified as:


NORAD ID: 44099
Int'l Code: 2019-018X
Perigee: 499.1 km
Apogee: 514.2 km
Inclination: 97.5 °
Period: 94.6 minutes
Semi major axis: 6877 km
RCS: Unknown
Launch date: April 1, 2019
Source: United States (US)
Launch site: SRIHARIKOTA (SRI)
aabbcc
Your satellite tracking list
Your tracking list is empty




NASA's NSSDC Master Catalog

Two Line Element Set (TLE):
1 44099U 19018X   19112.70436358  .00000866  00000-0  40891-4 0  9991
2 44099  97.4620 173.0961 0010976 213.6871 146.3669 15.22097437  3248
Source of the keplerian elements: AFSPC